Orbital Elements at Epoch 2459000.5 (2020-May-31.0) TDB
Reference: JPL 13 (heliocentric ecliptic J2000)
Element | Value | Uncertainty (1-sigma) | Units |
e | .1418897856188973 | 1.1064e-07 | |
a | 3.092864045702172 | 5.688e-08 | au |
q | 2.654018229309095 | 3.7037e-07 | au |
i | 14.87618463242656 | 1.0421e-05 | deg |
node | 345.8009000426642 | 2.3703e-05 | deg |
peri | 3.084337199683614 | 3.7691e-05 | deg |
M | 328.4307717215195 | 2.5206e-05 | deg |
tp | 2459174.721254490066 (2020-Nov-21.22125449) | 0.00013866 | TDB |
period | 1986.733760583478 5.44 | 5.4806e-05 1.501e-07 | d yr |
n | .1812019341203889 | 4.9987e-09 | deg/d |
Q | 3.531709862095249 | 6.4951e-08 | au |
|
| | Orbit Determination Parameters
Additional Information
|